星链-4554 (STARLINK-4554 )

导读

STARLINK-4554是美国太空探索技术公司SpaceX星链星座中的一颗卫星,于2022年8月28日发射入轨,属于星链组网扩容的卫星之一,承担卫星互联网服务,旨在为全球提供高速低延迟的宽带互联网接入,目前已在轨道正常运行,服务地面网络覆盖。

基本信息
目录编号:
53626
目录名称:
STARLINK-4554
国际标识:
2022-104AQ
轨道中心:
EARTH
卫星名称:
星链-4554
卫星全名:
星链-4554 (STARLINK-4554 )
卫星状态:
在轨 (已飞行1468 天)
发射日期:
2022-08-28 UTC
国别 :
美国 (US)
星等 :
--
轨道信息
数据来源 国际轨道数据
星历时间: 2026-09-04T10:24:50+0800
7小时前
查看轨道信息
半长轴: 6843.341km
偏心率: 0.0001364
轨道倾角: 53.160°
近地点辐角 77.971°
升交点赤经 144.611°
平近点角 282.145°
近地点: 464.27km
远地点: 466.138km
周期: 93.899分钟
每日圈数: 15.335591
详细信息
固有亮度:
5
最大亮度:
2.5
卫星平台:
Starlink v1.5
覆盖范围:
全球
运营商:
太空探索技术公司
运营商所在国:
美国
制造商(研发单位):
太空探索技术公司
制造商所在国:
美国
使用方式:
暂无
卫星简介
星链(Starlink)计划是由太空探索技术公司(SpaceX)提出的一个巨型低轨卫星互联网星座项目,计划在2019年至2024年间在太空搭建由约1.2万颗卫星组成的“星链”网络,其中1584颗将部署在地球上空550千米处的近地轨道,并从2020年开始工作。该卫星仍在工作。
2D轨道图
3D轨道图
轨道高度分析图
轨道倾角分析图
轨道综合分析图
查看轨道综合分析图
交会数据列表
事件ID 空间交会对象 最接近时刻(TCA) 交会距离 交会风险概率(CRP) 交会风险指数(CRI) 操作
CDM_260906-055301-258605-362621
SL-3 R/B (12586)
2026-09-06T
05:53:20+0000
0.551 km
远距离
1.618173E-4 高风险 0.79
CDM_260906-055005-362606-523521
2026-09-06T
05:50:04+0000
2.829 km
极远距离
1.42296E-6 低风险 0.38
CDM_260904-211705-362606-600921
2026-09-04T
21:17:09+0000
2.767 km
极远距离
1.308276E-6 低风险 0.37
CDM_260903-091505-362606-584321
2026-09-03T
09:15:01+0000
2.866 km
极远距离
1.26761E-6 低风险 0.37
CDM_260903-100205-362606-166321
2026-09-03T
10:02:21+0000
2.898 km
极远距离
1.247827E-6 低风险 0.37
CDM_260905-013205-362605-898021
2026-09-05T
01:32:23+0000
2.474 km
极远距离
8.815409E-7 极低风险 0.34
CDM_260829-174205-362606-044521
2026-08-29T
17:42:35+0000
2.552 km
极远距离
8.259666E-7 极低风险 0.33
CDM_260829-165505-362606-044521
2026-08-29T
16:55:40+0000
2.779 km
极远距离
7.333606E-7 极低风险 0.32
CDM_260905-021905-362605-898021
2026-09-05T
02:19:18+0000
2.860 km
极远距离
7.187668E-7 极低风险 0.32